Home   Weather   Sutton Coldfield   Past weeks
Flag for United Kingdom

Past Weather in Sutton Coldfield, England, United Kingdom — Yesterday and Last 2 Weeks

Now
43 °F

Clear.


Feels Like: 40 °F
Forecast: 49 / 44 °F
Wind: 5 mph from South

Location: Birmingham / Airport

Current Time: Apr 26, 2019 at 5:02:54 am

Latest Report: Apr 26, 2019 at 4:20 am


Visibility: 10 mi

Pressure: 29.68 "Hg

Humidity: 100%

Dew Point: 43 °F

Location of Sutton ColdfieldLocation

Past Weather in Sutton Coldfield — Graph

°F

Sutton Coldfield Temperature Yesterday

Maximum temperature yesterday: 55 °F (at 1:50 pm)
Minimum temperature yesterday: 43 °F (at 11:50 pm)
Average temperature yesterday: 49 °F

High & Low Weather Summary for the Past Weeks

 TemperatureHumidityPressure
High72 °F (Apr 19, 4:20 pm)100% (Apr 16, 6:20 am)30.48 "Hg (Apr 16, 6:20 am)
Low30 °F (Apr 14, 4:50 am)29% (Apr 20, 2:50 pm)29.24 "Hg (Apr 24, 2:20 pm)
Average51 °F69%30.04 "Hg
* Reported Apr 11 3:20 am — Apr 26 3:50 am, Sutton Coldfield. Weather by CustomWeather, © 2019

Note: Actual official high and low records may vary slightly from our data, if they occured in-between our weather recording intervals... More about our weather records

Advertising

Sutton Coldfield Weather History for the Previous 24 Hours

Scroll right to see more
 ConditionsComfort  
Time TempWeatherWind HumidityBarometerVisibility
3:50 am
Fri, Apr 26
41 °FClear.5 mph100%29.68 "Hg10 mi
3:20 am43 °FClear.6 mph100%29.68 "Hg10 mi
2:50 am43 °FClear.5 mph93%29.68 "Hg10 mi
2:20 am41 °FClear.6 mph93%29.68 "Hg10 mi
1:50 am43 °FClear.3 mph93%29.68 "Hg10 mi
1:20 am43 °FClear.5 mph93%29.68 "Hg10 mi
12:50 am43 °FPassing clouds.5 mph93%29.65 "HgN/A
12:20 am43 °FPassing clouds.6 mph93%29.65 "HgN/A
11:50 pm
Thu, Apr 25
43 °FClear.3 mph87%29.65 "Hg10 mi
11:20 pm45 °FClear.5 mph87%29.62 "Hg10 mi
10:50 pm46 °FClear.6 mph82%29.62 "Hg10 mi
10:20 pm46 °FClear.6 mph82%29.62 "Hg10 mi
9:50 pm46 °FClear.6 mph82%29.59 "Hg10 mi
9:20 pm45 °FPassing clouds.5 mph93%29.59 "HgN/A
8:50 pm45 °FPassing clouds.3 mph93%29.56 "HgN/A
8:20 pm46 °FPassing clouds.6 mph87%29.56 "HgN/A
7:50 pm50 °FPassing clouds.6 mph76%29.56 "HgN/A
7:20 pm52 °FPassing clouds.7 mph77%29.53 "HgN/A
6:50 pm52 °FScattered clouds.6 mph77%29.53 "HgN/A
6:20 pm50 °FScattered clouds.6 mph82%29.53 "HgN/A
5:50 pm52 °FScattered showers. Scattered clouds.12 mph72%29.50 "HgN/A
5:20 pm52 °FScattered showers. Scattered clouds.8 mph77%29.50 "HgN/A
4:50 pm52 °FScattered showers. Scattered clouds.10 mph77%29.50 "HgN/A
4:20 pm52 °FScattered showers. Scattered clouds.10 mph77%29.47 "HgN/A
3:50 pm54 °FScattered showers. Scattered clouds.10 mph72%29.47 "HgN/A
3:20 pm55 °FScattered showers. Scattered clouds.8 mph72%29.45 "HgN/A
2:50 pm55 °FScattered clouds.8 mph67%29.45 "HgN/A
2:20 pm54 °FScattered showers. Broken clouds.7 mph77%29.45 "HgN/A
1:50 pm55 °FScattered showers. Scattered clouds.12 mph77%29.45 "HgN/A
1:20 pm54 °FScattered showers. Scattered clouds.13 mph77%29.42 "HgN/A
12:50 pm50 °FScattered showers. Scattered clouds.14 mph88%29.45 "HgN/A
12:20 pm52 °FRain showers. Scattered clouds.9 mph82%29.42 "Hg3 mi
11:50 am50 °FScattered showers. Scattered clouds.7 mph76%29.42 "HgN/A
11:20 am52 °FScattered showers. Scattered clouds.14 mph82%29.42 "HgN/A
10:50 am52 °FScattered showers. Scattered clouds.12 mph82%29.42 "HgN/A
10:20 am52 °FScattered showers. Scattered clouds.10 mph82%29.42 "HgN/A
9:50 am52 °FScattered clouds.16 mph82%29.42 "HgN/A
9:20 am52 °FScattered clouds.14 mph88%29.39 "HgN/A
8:50 am52 °FBroken clouds.14 mph88%29.39 "HgN/A
8:20 am50 °FScattered clouds.15 mph94%29.39 "HgN/A
7:50 am48 °FScattered clouds.14 mph94%29.39 "HgN/A
6:50 am48 °FScattered showers. Scattered clouds.13 mph94%29.36 "HgN/A
6:20 am48 °FScattered showers. Scattered clouds.14 mph87%29.36 "HgN/A
5:50 am48 °FScattered clouds.13 mph87%29.36 "HgN/A
5:20 am46 °FPassing clouds.7 mph87%29.36 "HgN/A
Weather by CustomWeather, © 2019

See weather overview